Hlavní strana
METAR-TAF:

METAR-TAF

Letiště :

Shelbyville, Tennessee, Spojené státy americké

zeměpisná šířka: 35-33-34N, zeměpisná délka: 086-26-33W, výška: 244 m

Aktuální stav počasí

Zpráva byla vytvořena před 24 minutami, v 18:15 UTC
Bezvětří
Teplota 15°C
Vlhkost vzduchu 100%
Tlak 1017 hPa
Viditelnost: 16.1 km
Skoro jasno ve výšce 7000 ft
Skoro jasno ve výšce 9500 ft

METAR: KSYI 181815Z AUTO 00000KT 10SM FEW070 FEW095 15/15 A3002 RMK A01

Čas: 12:39 (18:39 UTC)


TAF: chybějící

Stav a předpovědi počasí z více než 4 000 letišť (zprávy METAR a TAF).

Červené a žluté tečky na mapě představují dostupné meteorologické stanice.

Když kurzor umístíte na tečku, zobrazí se název stanice.

Pak kliknutím zobrazíte stav a předpověď počasí.

Chcete-li změnit mapu, kliknutím na zelené tlačítko se znaménkem +mapu přiblížíte, kliknutím na zelené tlačítko se znaménkem – mapu oddálíte a kliknutím na zelené šipky přejdete na sousední mapy.


METAR-TAF: